Stündliche Wetter Abranka

Heute, 21 Juni, Montag

Zeit Temperatur Niederschläge Wind Luftdruck Luftfeuchtigkeit
00:00 +18°C° 0 mm 2 m/S 708 mmHg 96%
01:00 +18°C° 0 mm 2 m/S 707 mmHg 96%
02:00 +18°C° 0 mm 2 m/S 707 mmHg 95%
03:00 +18°C° 0 mm 2 m/S 707 mmHg 95%
04:00 +17°C° 0 mm 2 m/S 707 mmHg 95%
05:00 +17°C° 0 mm 2 m/S 707 mmHg 96%
06:00 +18°C° 0 mm 1 m/S 707 mmHg 98%
07:00 +19°C° 0 mm 1 m/S 707 mmHg 98%
08:00 +21°C° 0 mm 1 m/S 707 mmHg 95%
09:00 +20°C° 0 mm 0 m/S 708 mmHg 92%
10:00 +23°C° 0 mm 1 m/S 708 mmHg 91%
11:00 +23°C° 0 mm 2 m/S 708 mmHg 90%
12:00 +24°C° 0 mm 2 m/S 708 mmHg 89%
13:00 +25°C° 0 mm 1 m/S 708 mmHg 88%
14:00 +25°C° 0 mm 1 m/S 707 mmHg 86%
15:00 +26°C° 0 mm 1 m/S 707 mmHg 87%
16:00 +26°C° 0 mm 1 m/S 707 mmHg 85%
17:00 +26°C° 0 mm 2 m/S 707 mmHg 84%
18:00 +25°C° 0 mm 2 m/S 707 mmHg 86%
19:00 +25°C° 0 mm 2 m/S 707 mmHg 93%
20:00 +24°C° 0 mm 1 m/S 707 mmHg 96%
21:00 +23°C° 0 mm 1 m/S 707 mmHg 96%
22:00 +22°C° 0 mm 1 m/S 707 mmHg 96%
23:00 +22°C° 0 mm 1 m/S 707 mmHg 99%

Morgen, 22 Juni, Dienstag

Zeit Temperatur Niederschläge Wind Luftdruck Luftfeuchtigkeit
00:00 +20°C° 0 mm 2 m/S 707 mmHg 99%
01:00 +21°C° 0 mm 1 m/S 706 mmHg 98%
02:00 +20°C° 0 mm 1 m/S 706 mmHg 93%
03:00 +19°C° 0 mm 2 m/S 706 mmHg 94%
04:00 +19°C° 0 mm 2 m/S 706 mmHg 94%
05:00 +19°C° 0 mm 1 m/S 706 mmHg 96%
06:00 +19°C° 0 mm 1 m/S 706 mmHg 96%
07:00 +21°C° 0 mm 1 m/S 707 mmHg 97%
08:00 +22°C° 0 mm 1 m/S 707 mmHg 95%
09:00 +23°C° 0 mm 1 m/S 708 mmHg 94%
10:00 +24°C° 0 mm 2 m/S 708 mmHg 93%
11:00 +25°C° 0 mm 2 m/S 708 mmHg 91%
12:00 +26°C° 0 mm 2 m/S 708 mmHg 89%
13:00 +26°C° 0 mm 3 m/S 708 mmHg 86%
14:00 +27°C° 0 mm 3 m/S 708 mmHg 86%
15:00 +27°C° 0 mm 3 m/S 708 mmHg 83%
16:00 +24°C° 0.6 mm 8 m/S 708 mmHg 92%
17:00 +25°C° 0.8 mm 1 m/S 708 mmHg 84%
18:00 +26°C° 0 mm 4 m/S 708 mmHg 90%
19:00 +26°C° 0 mm 5 m/S 707 mmHg 87%
20:00 +24°C° 0 mm 3 m/S 708 mmHg 96%
21:00 +24°C° 0 mm 2 m/S 708 mmHg 100%
22:00 +23°C° 0 mm 2 m/S 708 mmHg 100%
23:00 +23°C° 0 mm 1 m/S 708 mmHg 100%

übermorgen, 23 Juni, Mittwoch

Zeit Temperatur Niederschläge Wind Luftdruck Luftfeuchtigkeit
00:00 +22°C° 0 mm 1 m/S 709 mmHg 100%
01:00 +22°C° 0 mm 1 m/S 709 mmHg 100%
02:00 +22°C° 0 mm 1 m/S 709 mmHg 100%
03:00 +22°C° 0 mm 1 m/S 709 mmHg 100%
04:00 +21°C° 0 mm 1 m/S 709 mmHg 100%
05:00 +21°C° 0 mm 1 m/S 709 mmHg 100%
06:00 +21°C° 0 mm 1 m/S 709 mmHg 100%
07:00 +22°C° 0 mm 1 m/S 710 mmHg 100%
08:00 +23°C° 0 mm 2 m/S 710 mmHg 100%
09:00 +23°C° 0 mm 2 m/S 711 mmHg 99%
10:00 +24°C° 0 mm 3 m/S 711 mmHg 97%
11:00 +25°C° 0 mm 2 m/S 711 mmHg 94%
12:00 +25°C° 0 mm 3 m/S 711 mmHg 94%
13:00 +26°C° 0 mm 2 m/S 711 mmHg 91%
14:00 +26°C° 0 mm 3 m/S 711 mmHg 87%
15:00 +27°C° 0 mm 2 m/S 711 mmHg 87%
16:00 +27°C° 0 mm 3 m/S 712 mmHg 89%
17:00 +27°C° 0 mm 2 m/S 711 mmHg 91%
18:00 +26°C° 0 mm 3 m/S 711 mmHg 92%
19:00 +26°C° 0 mm 3 m/S 711 mmHg 97%
20:00 +25°C° 0 mm 2 m/S 712 mmHg 98%
21:00 +24°C° 0 mm 1 m/S 712 mmHg 100%
22:00 +23°C° 0 mm 1 m/S 711 mmHg 100%
23:00 +23°C° 0 mm 1 m/S 712 mmHg 100%

24 Juni, Donnerstag

Zeit Temperatur Niederschläge Wind Luftdruck Luftfeuchtigkeit
00:00 +23°C° 0 mm 1 m/S 712 mmHg 100%
01:00 +23°C° 0 mm 1 m/S 712 mmHg 100%
02:00 +22°C° 0 mm 1 m/S 712 mmHg 100%
03:00 +22°C° 0 mm 1 m/S 712 mmHg 100%
04:00 +20°C° 0 mm 0 m/S 712 mmHg 100%
05:00 +20°C° 0 mm 0 m/S 712 mmHg 100%
06:00 +22°C° 0 mm 1 m/S 712 mmHg 100%
07:00 +20°C° 0 mm 0 m/S 712 mmHg 100%
08:00 +20°C° 0 mm 0 m/S 713 mmHg 100%
09:00 +23°C° 0 mm 1 m/S 713 mmHg 100%
10:00 +24°C° 0 mm 1 m/S 714 mmHg 97%
11:00 +25°C° 0 mm 2 m/S 714 mmHg 93%
12:00 +26°C° 0 mm 2 m/S 714 mmHg 91%
13:00 +26°C° 0 mm 2 m/S 713 mmHg 90%
14:00 +27°C° 0 mm 2 m/S 713 mmHg 88%
15:00 +27°C° 0 mm 2 m/S 713 mmHg 88%
16:00 +27°C° 0.1 mm 2 m/S 713 mmHg 93%
17:00 +27°C° 0 mm 3 m/S 713 mmHg 91%
18:00 +27°C° 0 mm 2 m/S 712 mmHg 92%
19:00 +26°C° 0 mm 2 m/S 712 mmHg 94%
20:00 +25°C° 0 mm 2 m/S 712 mmHg 99%
21:00 +24°C° 0 mm 2 m/S 712 mmHg 100%
22:00 +24°C° 0 mm 1 m/S 712 mmHg 100%
23:00 +24°C° 0 mm 1 m/S 712 mmHg 100%

25 Juni, Freitag

Zeit Temperatur Niederschläge Wind Luftdruck Luftfeuchtigkeit
00:00 +23°C° 0 mm 1 m/S 712 mmHg 100%
01:00 +23°C° 0 mm 1 m/S 711 mmHg 100%
02:00 +23°C° 0 mm 1 m/S 711 mmHg 100%
03:00 +23°C° 0 mm 1 m/S 711 mmHg 94%
04:00 +22°C° 0 mm 1 m/S 711 mmHg 91%
05:00 +22°C° 0 mm 1 m/S 711 mmHg 91%
06:00 +22°C° 0 mm 1 m/S 710 mmHg 91%
07:00 +21°C° 0 mm 0 m/S 711 mmHg 94%
08:00 +24°C° 0 mm 1 m/S 711 mmHg 92%
09:00 +26°C° 0 mm 2 m/S 711 mmHg 88%
10:00 +27°C° 0 mm 3 m/S 711 mmHg 85%
11:00 +27°C° 0 mm 4 m/S 711 mmHg 85%
12:00 +28°C° 0 mm 4 m/S 711 mmHg 89%
13:00 +28°C° 0 mm 4 m/S 711 mmHg 91%
14:00 +28°C° 0 mm 5 m/S 711 mmHg 89%
15:00 +27°C° 0.2 mm 4 m/S 710 mmHg 65%
16:00 +26°C° 0 mm 3 m/S 710 mmHg 71%
17:00 +25°C° 0 mm 2 m/S 709 mmHg 74%
18:00 +25°C° 0 mm 1 m/S 710 mmHg 80%
19:00 +23°C° 0 mm 4 m/S 710 mmHg 91%
20:00 +23°C° 0 mm 2 m/S 710 mmHg 94%
21:00 +22°C° 0 mm 3 m/S 710 mmHg 94%
22:00 +21°C° 0 mm 2 m/S 710 mmHg 99%
23:00 +22°C° 0 mm 1 m/S 710 mmHg 96%

26 Juni, Samstag

Zeit Temperatur Niederschläge Wind Luftdruck Luftfeuchtigkeit
00:00 +22°C° 0 mm 1 m/S 710 mmHg 93%
01:00 +19°C° 0 mm 0 m/S 709 mmHg 92%
02:00 +19°C° 0 mm 0 m/S 709 mmHg 92%
03:00 +19°C° 0 mm 0 m/S 709 mmHg 93%
04:00 +20°C° 0 mm 1 m/S 709 mmHg 95%
05:00 +20°C° 0 mm 1 m/S 710 mmHg 97%
06:00 +18°C° 0 mm 0 m/S 709 mmHg 99%
07:00 +19°C° 0 mm 0 m/S 710 mmHg 100%
08:00 +22°C° 0 mm 1 m/S 710 mmHg 100%
09:00 +23°C° 0 mm 1 m/S 710 mmHg 97%
10:00 +24°C° 0.1 mm 3 m/S 710 mmHg 95%
11:00 +24°C° 0.1 mm 3 m/S 710 mmHg 93%
12:00 +24°C° 0.7 mm 2 m/S 710 mmHg 94%
13:00 +24°C° 0.1 mm 3 m/S 709 mmHg 90%
14:00 +25°C° 0 mm 3 m/S 709 mmHg 87%
15:00 +25°C° 0 mm 4 m/S 709 mmHg 85%
16:00 +24°C° 0 mm 3 m/S 709 mmHg 87%
17:00 +21°C° 0.6 mm 4 m/S 710 mmHg 89%
18:00 +20°C° 2.6 mm 2 m/S 709 mmHg 84%
19:00 +21°C° 0 mm 1 m/S 709 mmHg 86%
20:00 +19°C° 0 mm 0 m/S 709 mmHg 92%
21:00 +21°C° 0 mm 1 m/S 709 mmHg 91%
22:00 +19°C° 0 mm 3 m/S 709 mmHg 97%
23:00 +18°C° 0 mm 3 m/S 709 mmHg 98%
Mehr zeigen

Wir brauchen deine Erlaubnis

Meteoprog und unser Service Anbieter werden persönliche Daten aufbewahren, so wie Cookies, Geräte Bezeichnung oder ähnliche Technologien von deinem Gerät und Prozess, so wie Persönliche Daten Inhalte und Werbungen, genauso wie social Media und den Verkehr zu analysieren.

  • Aufbewahrung und/oder Zugang zu deiner Geräte Informationen.

    Cookies, Geräte Bezeichnung oder andere Informationen, können aufbewahrt oder Zugang zu deinem Gerät erhalten, für den Grund, der oben angegeben wird.

  • Personalisierte Werbung und Inhalte, Messungen, Einblick in das Publikum und Produkt Entwicklung.

    Werbungen und Inhalte können personalisiert werden, basierend auf ein Profil. Mehr Daten können besser personalisierte Werbungen und Inhalte hinzufügen. Werbung und Inhalte können gezeigt und gemessen werden. Einblicke über das Publikum, welche die Werbung gesehen haben und den Inhalt, können abgeleitet werden. So wie Daten können genutzt werden, um es zu verbessern oder die Benutzer Erfahrung zu verbessern das System und die Software.

Wenn du “Ich stimme zu” klickst, erlaubst du uns, die Cookies zu benutzen die Geräte Bezeichnung, den Web oder ähnliche Technologien zu benutzen. Deine Settings, können in deinem Gerät bei deinem Browser geändert werden.

Für den bestimmten Zweck, berechtigten Interessen beruhen darauf, mehr als auf den Inhalt. Du kannst mehr darüber in unseren Privaten und Cookie Politik lesen.